星链-3354 (STARLINK-3354 )

导读 | 豆包AI

STARLINK-3354是美国SpaceX星链互联网卫星项目中的一颗卫星,于北京时间2022年1月19日发射升空。星链计划旨在构建覆盖全球的低轨卫星互联网星座,该卫星入轨后参与星座组网,为全球多地用户提供低延迟、高速率的宽带互联网服务,补充完善了星链低轨星座的服务覆盖能力与网络容量。

基本信息
目录编号:
51146
目录名称:
STARLINK-3354
国际标识:
2022-005AU
轨道中心:
EARTH
卫星名称:
星链-3354
卫星全名:
星链-3354 (STARLINK-3354 )
卫星状态:
在轨 (已飞行1563 天)
发射日期:
2022-01-19 UTC
国别 :
美国 (US)
星等 :
--
轨道信息
数据来源 国际轨道数据 AOE轨道数据
星历时间 2026-04-30T21:54:54+0800
12小时前
查看轨道信息
2026-04-26T11:00:00+0800
4天前
查看轨道信息
半长轴 6917.875km 6917.888km
偏心率 0.0001744 0.0001288
轨道倾角 53.219° 53.215°
近地点辐角 80.033° 91.444°
升交点赤经 66.185° 86.178°
平近点角 280.086° 177.941°
近地点 538.531km 538.859km
远地点 540.945km 540.643km
周期 95.437分钟 95.438分钟
每日圈数 15.088419 15.088376
详细信息
固有亮度:
5
最大亮度:
2.5
卫星平台:
Starlink v1.5
覆盖范围:
全球
运营商:
太空探索技术公司
运营商所在国:
美国
制造商(研发单位):
太空探索技术公司
制造商所在国:
美国
使用方式:
暂无
卫星简介
星链(Starlink)计划是由太空探索技术公司(SpaceX)提出的一个巨型低轨卫星互联网星座项目,计划在2019年至2024年间在太空搭建由约1.2万颗卫星组成的“星链”网络,其中1584颗将部署在地球上空550千米处的近地轨道,并从2020年开始工作。该卫星仍在工作。
2D轨道图
3D轨道图
轨道高度分析图
轨道倾角分析图
轨道综合分析图
查看轨道综合分析图